www.pogodaiklimat.ru

Погода и климат >> Архив погоды >> Таиланд >> Satun


ПОГОДА в Satun

  • Прогноз погоды в Satun
  • Монитор погоды в Satun
  • Климат города

АРХИВ ПОГОДЫ в Satun

Время (UTC), дата Ветер
(напр.,м/с)
 
Видим.   Явления Облачность Т
(С)
Тd
(С)
f
(%)
Тe
(С)
Тes
(С)
Комфортность P
(гПа)
Po
(гПа)
Тmin
(С)
Tmax
(С)
R
(мм)
R24
(мм)
S
(см)
09 10.12 В 3 10 км 5/3 600 м
[Cu med, cong Cs]
+31.7 +21.8 56 +40 +43 очень
душно
1009.5 1008.8
12 10.12 В 5 10 км 4/1 600 м
[Cu med, cong Cs]
+27.7 +21.4 69 +35 +35 очень
душно
1011.6 1010.9 +32.6
15 10.12 штиль 0 10 км 4/1 600 м
[Cu med, cong Cs]
+25.4 +22.4 83 +33 +33 очень
душно
1012.6 1011.9
18 10.12 штиль 0 10 км 4/1 600 м
[Cu med, cong Cs]
+23.5 +22.0 91 +30 +30 очень
душно
1010.9 1010.2
21 10.12 штиль 0 10 км 4/1 600 м
[Cu med, cong Cs]
+23.0 +21.5 91 +31 +31 очень
душно
1010.7 1010.0
00 11.12 штиль 0 7000 м дымка 5/1 600 м
[Cu med, cong Cs]
+23.4 +22.0 92 +32 +32 очень
душно
1011.8 1011.2 +22.7
03 11.12 штиль 0 10 км 8/3 600 м
[Cu med, cong Cs]
+29.7 +22.8 67 +40 +48 очень
душно
1013.6 1012.9
06 11.12 штиль 0 10 км 8/3 600 м
[Cu med, cong Cs]
+32.0 +22.5 57 +41 +54 опасность
перегрева
1010.9 1010.2
09 11.12 штиль 0 10 км 6/3 600 м
[Cu med, cong Cs]
+32.0 +21.7 55 +41 +45 опасность
перегрева
1008.8 1008.1
12 11.12 штиль 0 10 км 6/3 600 м
[Cu med, cong Cs]
+27.0 +21.6 72 +34 +34 очень
душно
1011.1 1010.5 +33.0
15 11.12 штиль 0 10 км 4/1 600 м
[Cu hum Cs]
+24.5 +21.2 82 +31 +31 очень
душно
1013.1 1012.4
18 11.12 штиль 0 10 км 3/1 600 м
[Cu hum Cs]
+23.3 +21.5 90 +31 +31 очень
душно
1012.6 1011.9
21 11.12 штиль 0 10 км 4/1 600 м
[Cu hum Cs]
+22.9 +21.4 91 +30 +30 очень
душно
1011.5 1010.8
00 12.12 штиль 0 8000 м дымка 5/1 600 м
[Cu med, cong Cs]
+23.0 +21.6 92 +31 +31 очень
душно
1012.8 1012.1 +22.2
03 12.12 штиль 0 10 км 8/3 600 м
[Cu med, cong Cs]
+29.0 +23.3 71 +39 +48 очень
душно
1014.0 1013.3
06 12.12 В 3 10 км 8/3 600 м
[Cu med, cong Cs]
+32.3 +22.2 55 +41 +49 опасность
перегрева
1011.3 1010.6
09 12.12 штиль 0 10 км 6/3 600 м
[Cu med, cong Cs]
+31.7 +24.3 65 +44 +48 опасность
перегрева
1008.7 1008.1
12 12.12 штиль 0 10 км 5/3 600 м
[Cu med, cong Cs]
+28.0 +23.6 77 +38 +38 очень
душно
1010.6 1009.9 +32.6
15 12.12 штиль 0 10 км 4/1 600 м
[Cu hum Cs]
+25.6 +23.2 87 +34 +34 очень
душно
1012.3 1011.6
18 12.12 штиль 0 10 км 4/1 600 м
[Cu hum Cs]
+24.5 +22.4 88 +32 +32 очень
душно
1011.7 1011.0
21 12.12 штиль 0 10 км 5/1 600 м
[Cu hum Cs]
+23.9 +22.1 90 +31 +31 очень
душно
1010.6 1009.9
00 13.12 штиль 0 8000 м дымка 6/1 600 м
[Cu med, cong Cs]
+23.5 +22.1 92 +30 +31 очень
душно
1012.4 1011.7 +22.7
03 13.12 штиль 0 10 км 6/1 600 м
[Cu med, cong Cs]
+30.0 +23.5 68 +41 +52 опасность
перегрева
1013.4 1012.8
06 13.12 штиль 0 10 км 8/3 600 м
[Cu med, cong Cs]
+32.7 +23.0 57 +43 +56 опасность
перегрева
1011.1 1010.4
09 13.12 З 4 10 км 8/3 600 м
[Cu med, cong Ac lent Cs]
+32.0 +22.8 58 +42 +43 опасность
перегрева
1008.6 1007.9
12 13.12 штиль 0 10 км 8/3 600 м
[Cu med, cong Cs]
+29.0 +23.9 74 +40 +40 очень
душно
1009.9 1009.2 +33.1
15 13.12 штиль 0 10 км 5/1 600 м
[Cu med, cong Cs]
+26.5 +23.7 85 +36 +36 очень
душно
1012.0 1011.3
18 13.12 штиль 0 10 км 4/1 600 м
[Cu hum Cs]
+24.5 +22.6 89 +32 +32 очень
душно
1011.5 1010.8
21 13.12 штиль 0 10 км 4/1 600 м
[Cu hum Cs]
+23.4 +21.9 91 +32 +32 очень
душно
1010.5 1009.8
00 14.12 штиль 0 8000 м дымка 5/1 600 м
[Cu hum Cs]
+23.0 +21.6 92 +31 +31 очень
душно
1011.9 1011.2 +22.4
03 14.12 штиль 0 10 км 5/1 600 м
[Cu med, cong Cs]
+30.5 +22.4 62 +40 +52 опасность
солнечного
удара
1013.0 1012.3
06 14.12 штиль 0 10 км 8/3 600 м
[Cu med, cong Cs]
+33.0 +23.5 58 +44 +57 опасность
перегрева
1010.8 1010.1
09 14.12 штиль 0 10 км 8/3 600 м
[Cu med, cong Cs]
+31.5 +23.1 61 +42 +46 опасность
перегрева
1009.2 1008.5
12 14.12 штиль 0 10 км 6/1 600 м
[Cu med, cong Cs]
+28.6 +23.7 75 +39 +39 очень
душно
1010.3 1009.6 +33.1
15 14.12 штиль 0 10 км 6/1 600 м
[Cu med, cong Cs]
+25.9 +23.3 86 +35 +35 очень
душно
1012.1 1011.4
18 14.12 штиль 0 10 км 5/1 600 м
[Cu hum Cs]
+24.7 +22.9 90 +33 +33 очень
душно
1011.6 1010.9
21 14.12 штиль 0 10 км 4/1 600 м
[Cu hum Cs]
+24.0 +22.7 92 +31 +31 очень
душно
1010.4 1009.7
00 15.12 штиль 0 8000 м дымка 5/1 600 м
[Cu hum Cs]
+23.6 +22.4 93 +31 +31 очень
душно
1011.5 1010.8 +23.1
03 15.12 штиль 0 10 км 6/3 600 м
[Cu med, cong Cs]
+30.6 +24.0 68 +42 +52 опасность
перегрева
1012.7 1012.1
06 15.12 штиль 0 10 км 6/3 600 м
[Cu med, cong Cs]
+33.0 +21.1 50 +41 +55 опасность
перегрева
1010.3 1009.7
09 15.12 штиль 0 10 км 8/3 600 м
[Cu med, cong Cs]
+32.5 +23.9 61 +44 +48 опасность
перегрева
1008.3 1007.6
12 15.12 штиль 0 10 км 6/3 600 м
[Cu med, cong Cs]
+28.0 +23.2 75 +38 +38 очень
душно
1010.3 1009.7 +33.7
15 15.12 штиль 0 10 км 6/3 600 м
[Cu med, cong Cs]
+26.0 +24.1 89 +36 +36 очень
душно
1012.4 1011.7
18 15.12 штиль 0 10 км 6/3 600 м
[Cu med, cong Cs]
+24.5 +23.3 93 +33 +33 очень
душно
1011.9 1011.2
21 15.12 штиль 0 10 км 6/3 600 м
[Cu med, cong Cs]
+23.5 +22.3 93 +31 +31 очень
душно
1009.9 1009.2
00 16.12 штиль 0 8000 м дымка 6/3 600 м
[Cu med, cong Cs]
+23.5 +22.4 94 +31 +31 очень
душно
1011.4 1010.7 +22.8
03 16.12 штиль 0 10 км 4/1 600 м
[Cu med, cong Cs]
+31.1 +22.8 61 +41 +53 опасность
перегрева
1012.3 1011.7
06 16.12 штиль 0 10 км 8/4 600 м
[Cu med, cong Cs]
+33.3 +22.7 54 +43 +54 опасность
перегрева
1009.6 1008.9
09 16.12 З 2 10 км 8/3 600 м
[Cu med, cong Cs]
+32.4 +24.7 64 +45 +48 опасность
перегрева
1008.0 1007.3
12 16.12 штиль 0 10 км 8/3 600 м
[Cu med, cong Ac lent Cs]
+28.7 +22.8 70 +38 +38 очень
душно
1010.3 1009.6 +33.7
15 16.12 штиль 0 10 км 4/1 600 м
[Cu med, cong Cs]
+26.7 +23.2 81 +36 +36 очень
душно
1013.0 1012.3
18 16.12 штиль 0 10 км 4/1 600 м
[Cu med, cong Cs]
+25.5 +23.3 88 +34 +34 очень
душно
1012.3 1011.6
21 16.12 штиль 0 10 км 4/1 600 м
[Cu med, cong Cs]
+24.0 +22.2 90 +31 +31 очень
душно
1011.2 1010.5
00 17.12 штиль 0 8000 м дымка 5/1 600 м
[Cu med, cong Cs]
+23.7 +22.2 91 +31 +31 очень
душно
1012.3 1011.6 +22.2
03 17.12 штиль 0 10 км 8/3 600 м
[Cu med, cong Cs]
+30.7 +23.0 64 +41 +50 опасность
перегрева
1014.1 1013.4
06 17.12 В 5 10 км 8/3 600 м
[Cu med, cong Cs]
+32.2 +21.9 55 +41 +46 опасность
перегрева
1012.4 1011.7

 

Местоположение метеостанции Satun (Таиланд): широта 6.65 долгота 100.08 высота над уровнем моря 6 м.

В архиве по умолчанию представлена погода в Satun за последнюю неделю. Архивные данные за месяц целиком и за предыдущие месяцы, начиная с января 2011 года, Вы можете получить, выбрав интересующий диапазон дат из раскрывающегося списка и нажав кнопку "Ввод!".

Внимание! Время в таблицах - всемирное. Для получения местного времени необходимо прибавить поправку, которая в Satun равна 7 ч.

Смотрите также архив погоды в соседних городах и на ближайших метеорологических станциях:

Погода в Sadao (Таиланд) (39 км)
Погода в Hat Yai (Таиланд) (49 км)
Погода в Langkawi (Малайзия) (53 км)
Погода в Alor Star (Малайзия) (61 км)
Погода в Songkhla (Таиланд) (85 км)
Погода в Phatthalung Agromet (Таиланд) (104 км)
Погода в Trang (Таиланд) (109 км)
Погода в Pattani (Таиланд) (119 км)
Погода в Yala Agromet (Таиланд) (133 км)
Погода в Butterworth Air Base (Малайзия) (135 км)

Пояснения к столбцам:

Ветер - указаны скорость ветра в м/с - средняя за 10 мин, порывы в срок и между сроками (в фигурных скобках) и направление, откуда дует ветер: С - северный, СВ - северо-восточный, В - восточный, ЮВ - юго-восточный, Ю - южный, ЮЗ - юго-западный, З - западный, СЗ - северо-западный.
Видимость - горизонтальная дальность видимости в метрах или километрах. При видимости от 1 до 10 км при отсутствии осадков обычно наблюдается дымка, при ухудшении видимости до 1 км и менее - туман. В сухую погоду видимость может ухудшаться дымом, пылью или мглою.
Явления - указаны атмосферные явления, наблюдавшиеся в срок или в последний час перед сроком; фигурными скобками обозначены явления, наблюдавшиеся между сроками (за 1-3 часа до срока); квадратными скобками обозначены град или гололедные отложения с указанием их диаметра в мм.
Облачность - указаны через наклонную черту общая и нижняя облачность в баллах и высота нижней границы облаков в метрах; квадратными скобками обозначены формы облаков: Ci - перистые, Cs - перисто-слоистые, Cc - перисто-кучевые, Ac - высококучевые, As - высокослоистые, Sc - слоисто-кучевые, Ns - слоисто-дождевые, Cu - кучевые, Cb - кучево-дождевые. Подробнее классификацию облаков см. в Атласе облаков (PDF).
T - Температура воздуха - температура, измеренная на высоте 2 м над землей.
Td - Температура точки росы - температура, при понижении до которой содержащийся в воздухе водяной пар достигнет насыщения.
f - Относительная влажность воздуха - влажноcть воздуха, измеренная на высоте 2 м над землей.
Te - Эффективная температура - температура, которую ощущает одетый по сезону человек в тени. Характеристика душности погоды. При расчете учитывается влияние влажности воздуха и скорости ветра на теплоощущения человека.
Tes - Эффективная температура на солнце - температура, которую ощущает человек, с поправкой на солнечный нагрев. Характеристика знойности погоды. Зависит от высоты солнца над горизонтом, облачности и скорости ветра. Ночью, в пасмурную погоду, а также при ветре 12 м/с и более поправка равна нулю.
P - Атмосферное давление - приведенное к уровню моря атмосферное давление.
Po - Атмосферное давление - измеренное на уровне метеостанции атмосферное давление.
Tmin - Минимальная температура - минимум температуры воздуха на высоте 2 м над землей.
Tmax - Максимальная температура - максимум температуры воздуха на высоте 2 м над землей.
R - Количество осадков - Количество выпавших осадков за период времени, мм. При наведении курсора мыши на число - период времени, за который выпало указанное количество осадков.
R24 - Количество осадков - Количество выпавших осадков за 24 часа, мм.
S - Снежный покров - Высота снежного покрова, см. При наведении курсора мыши на число - состояние снежного покрова и степень покрытия местности в баллах.